| time (UTC) | temp F | wind direction | speed MPH | gust MPH | rain 1hr in | rain 24hr in | rain mn in | humidity % | barometer mb |
| 20260905130002 | 67 | 70 | 0.0 | 3.0 | 0.00 | 0.00 | 0.00 | 99 | 1012.4 |
| 20260905124851 | 67 | 72 | 0.0 | 3.0 | 0.00 | 0.00 | 0.00 | 99 | 1011.8 |
| 20260905124602 | 67 | 72 | 0.0 | 4.0 | 0.00 | 0.00 | 0.00 | 99 | 1011.7 |
| 20260905123005 | 66 | 62 | 2.0 | 7.0 | 0.00 | 0.00 | 0.00 | 98 | 1011.1 |
| 20260905122644 | 67 | 88 | 3.0 | 6.0 | 0.00 | 0.00 | 0.00 | 98 | 1011.0 |
| 20260905121704 | 67 | 63 | 2.0 | 6.0 | 0.00 | 0.00 | 0.00 | 98 | 1011.0 |
| 20260905121602 | 66 | 68 | 4.0 | 7.0 | 0.00 | 0.00 | 0.00 | 98 | 1011.1 |
| 20260905120641 | 67 | 82 | 1.0 | 5.0 | 0.00 | 0.00 | 0.00 | 98 | 1011.1 |
| 20260905120003 | 66 | 67 | 2.0 | 6.0 | 0.00 | 0.00 | 0.00 | 98 | 1011.4 |
| 20260905115641 | 67 | 84 | 1.0 | 5.0 | 0.00 | 0.00 | 0.00 | 98 | 1011.4 |
| 20260905114651 | 67 | 84 | 2.0 | 8.0 | 0.00 | 0.00 | 0.00 | 98 | 1011.3 |
| 20260905114602 | 66 | 68 | 3.0 | 6.0 | 0.00 | 0.00 | 0.00 | 98 | 1011.3 |
| 20260905113707 | 67 | 88 | 4.0 | 8.0 | 0.00 | 0.00 | 0.00 | 98 | 1011.2 |
| 20260905113002 | 66 | 75 | 3.0 | 7.0 | 0.00 | 0.00 | 0.00 | 98 | 1011.1 |
| 20260905112720 | 66 | 84 | 4.0 | 7.0 | 0.00 | 0.00 | 0.00 | 98 | 1011.0 |
| 20260905111714 | 66 | 76 | 5.0 | 7.0 | 0.00 | 0.00 | 0.00 | 98 | 1010.9 |
| 20260905111604 | 66 | 68 | 5.0 | 8.0 | 0.00 | 0.00 | 0.00 | 98 | 1010.9 |
| 20260905110643 | 66 | 79 | 4.0 | 8.0 | 0.00 | 0.00 | 0.00 | 98 | 1010.8 |
| 20260905110003 | 66 | 87 | 4.0 | 9.0 | 0.00 | 0.00 | 0.00 | 98 | 1011.1 |
| 20260905104602 | 66 | 74 | 3.0 | 9.0 | 0.00 | 0.00 | 0.00 | 98 | 1011.1 |
| 20260905104518 | 67 | 72 | 4.0 | 8.0 | 0.00 | 0.00 | 0.00 | 98 | 1011.0 |
| 20260905103003 | 66 | 82 | 4.0 | 11.0 | 0.00 | 0.00 | 0.00 | 98 | 1010.8 |
| 20260905102344 | 67 | 53 | 5.0 | 10.0 | 0.00 | 0.00 | 0.00 | 98 | 1010.7 |
| 20260905101610 | 66 | 72 | 5.0 | 9.0 | 0.00 | 0.00 | 0.00 | 97 | 1010.7 |
| 20260905101334 | 67 | 83 | 4.0 | 9.0 | 0.00 | 0.00 | 0.00 | 97 | 1010.7 |
| 20260905100328 | 67 | 70 | 6.0 | 9.0 | 0.00 | 0.00 | 0.00 | 97 | 1010.5 |
| 20260905095252 | 67 | 77 | 4.0 | 8.0 | 0.00 | 0.00 | 0.00 | 97 | 1010.6 |
| 20260905094502 | 66 | 80 | 4.0 | 9.0 | 0.00 | 0.00 | 0.00 | 97 | 1010.4 |
| 20260905093126 | 66 | 58 | 5.0 | 10.0 | 0.00 | 0.00 | 0.00 | 97 | 1009.9 |
| 20260905093117 | 66 | 66 | 4.0 | 10.0 | 0.00 | 0.00 | 0.00 | 97 | 1009.9 |
| 20260905092115 | 66 | 40 | 4.0 | 10.0 | 0.00 | 0.00 | 0.00 | 96 | 1009.8 |
| 20260905091504 | 66 | 96 | 4.0 | 11.0 | 0.00 | 0.00 | 0.00 | 96 | 1010.0 |
| 20260905091046 | 66 | 93 | 3.0 | 8.0 | 0.00 | 0.00 | 0.00 | 96 | 1010.0 |
| 20260905090103 | 66 | 68 | 1.0 | 7.0 | 0.00 | 0.00 | 0.00 | 96 | 1010.3 |
| 20260905090034 | 66 | 56 | 2.0 | 6.0 | 0.00 | 0.00 | 0.00 | 96 | 1010.2 |
| 20260905085048 | 66 | 67 | 0.0 | 5.0 | 0.00 | 0.00 | 0.00 | 95 | 1010.3 |
| 20260905084502 | 66 | 77 | 2.0 | 6.0 | 0.00 | 0.00 | 0.00 | 95 | 1010.5 |
| 20260905084024 | 66 | 73 | 2.0 | 6.0 | 0.00 | 0.00 | 0.00 | 95 | 1010.4 |
| 20260905083111 | 66 | 56 | 3.0 | 7.0 | 0.00 | 0.00 | 0.00 | 94 | 1010.4 |
| 20260905081906 | 66 | 65 | 4.0 | 7.0 | 0.00 | 0.00 | 0.00 | 94 | 1010.3 |
| 20260905081502 | 66 | 58 | 5.0 | 8.0 | 0.00 | 0.00 | 0.00 | 94 | 1010.3 |
| 20260905080830 | 67 | 77 | 2.0 | 7.0 | 0.00 | 0.00 | 0.00 | 94 | 1010.3 |
| 20260905080109 | 66 | 75 | 1.0 | 8.0 | 0.00 | 0.00 | 0.00 | 94 | 1010.5 |
| 20260905075837 | 67 | 76 | 3.0 | 7.0 | 0.00 | 0.00 | 0.00 | 94 | 1010.4 |
| 20260905074855 | 67 | 74 | 2.0 | 5.0 | 0.00 | 0.00 | 0.00 | 94 | 1010.5 |
| 20260905074502 | 66 | 69 | 3.0 | 5.0 | 0.00 | 0.00 | 0.00 | 94 | 1010.6 |
| 20260905073825 | 67 | 77 | 0.0 | 2.0 | 0.00 | 0.00 | 0.00 | 94 | 1010.6 |
| 20260905073102 | 67 | 71 | 1.0 | 5.0 | 0.00 | 0.00 | 0.00 | 94 | 1010.6 |
| 20260905071719 | 67 | 74 | 3.0 | 5.0 | 0.00 | 0.00 | 0.00 | 94 | 1010.5 |
| 20260905071508 | 67 | 64 | 3.0 | 6.0 | 0.00 | 0.00 | 0.00 | 94 | 1010.5 |
| 20260905070116 | 67 | 65 | 1.0 | 3.0 | 0.00 | 0.00 | 0.00 | 93 | 1010.6 |
| 20260905064503 | 67 | 27 | 0.0 | 4.0 | 0.00 | 0.00 | 0.00 | 93 | 1010.6 |
| 20260905064411 | 68 | 41 | 0.0 | 3.0 | 0.00 | 0.00 | 0.00 | 93 | 1010.6 |
| 20260905063357 | 68 | 65 | 0.0 | 2.0 | 0.00 | 0.00 | 0.00 | 93 | 1010.5 |
| 20260905063102 | 67 | 68 | 0.0 | 2.0 | 0.00 | 0.00 | 0.00 | 93 | 1010.5 |
| 20260905062339 | 68 | 68 | 0.0 | 1.0 | 0.00 | 0.00 | 0.00 | 93 | 1010.4 |
| 20260905061610 | 68 | 68 | 0.0 | 3.0 | 0.00 | 0.00 | 0.00 | 93 | 1010.5 |
| 20260905061304 | 69 | 68 | 0.0 | 2.0 | 0.00 | 0.00 | 0.00 | 93 | 1010.4 |
| 20260905060231 | 69 | 81 | 0.0 | 0.0 | 0.00 | 0.00 | 0.00 | 92 | 1010.4 |
| 20260905060003 | 69 | 81 | 0.0 | 1.0 | 0.00 | 0.00 | 0.00 | 92 | 1010.4 |
| 20260905055248 | 69 | 81 | 0.0 | 0.0 | 0.00 | 0.00 | 0.00 | 92 | 1010.4 |
| 20260905054606 | 69 | 81 | 0.0 | 6.0 | 0.00 | 0.00 | 0.00 | 92 | 1010.2 |
| 20260905054305 | 70 | 50 | 1.0 | 5.0 | 0.00 | 0.00 | 0.00 | 91 | 1010.1 |
| 20260905053321 | 70 | 53 | 1.0 | 4.0 | 0.00 | 0.00 | 0.00 | 91 | 1010.2 |
| 20260905053001 | 69 | 73 | 2.0 | 4.0 | 0.00 | 0.00 | 0.00 | 91 | 1010.2 |
| 20260905052247 | 70 | 68 | 0.0 | 3.0 | 0.00 | 0.00 | 0.00 | 91 | 1010.1 |
| 20260905051602 | 70 | 69 | 0.0 | 4.0 | 0.00 | 0.00 | 0.00 | 91 | 1010.2 |
| 20260905051249 | 70 | 353 | 0.0 | 3.0 | 0.00 | 0.00 | 0.00 | 91 | 1010.1 |
| 20260905050003 | 70 | 74 | 1.0 | 4.0 | 0.00 | 0.00 | 0.00 | 90 | 1010.0 |
| 20260905045133 | 71 | 58 | 4.0 | 7.0 | 0.00 | 0.00 | 0.00 | 90 | 1009.9 |
| 20260905044616 | 71 | 67 | 6.0 | 8.0 | 0.00 | 0.00 | 0.00 | 90 | 1009.8 |
| 20260905043003 | 71 | 65 | 1.0 | 5.0 | 0.00 | 0.00 | 0.00 | 89 | 1010.0 |
| 20260905041830 | 72 | 58 | 1.0 | 4.0 | 0.00 | 0.00 | 0.00 | 89 | 1009.8 |
| 20260905041609 | 71 | 53 | 2.0 | 5.0 | 0.00 | 0.00 | 0.00 | 89 | 1009.9 |
| 20260905040836 | 72 | 74 | 3.0 | 7.0 | 0.00 | 0.00 | 0.00 | 88 | 1009.8 |
| 20260905040003 | 72 | 64 | 3.0 | 8.0 | 0.00 | 0.00 | 0.00 | 88 | 1010.0 |
| 20260905035848 | 73 | 79 | 4.0 | 7.0 | 0.00 | 0.00 | 0.00 | 88 | 1009.9 |
| 20260905034833 | 73 | 73 | 4.0 | 7.0 | 0.00 | 0.00 | 0.00 | 88 | 1009.8 |
| 20260905034503 | 72 | 68 | 4.0 | 8.0 | 0.00 | 0.00 | 0.00 | 87 | 1009.9 |
| 20260905033833 | 73 | 68 | 5.0 | 7.0 | 0.00 | 0.00 | 0.00 | 87 | 1009.9 |
| 20260905033106 | 73 | 77 | 5.0 | 8.0 | 0.00 | 0.00 | 0.00 | 87 | 1009.9 |
| 20260905032831 | 74 | 70 | 3.0 | 7.0 | 0.00 | 0.00 | 0.00 | 87 | 1009.9 |
| 20260905031819 | 73 | 51 | 1.0 | 5.0 | 0.00 | 0.00 | 0.00 | 88 | 1009.9 |
| 20260905031502 | 73 | 60 | 1.0 | 6.0 | 0.00 | 0.00 | 0.00 | 88 | 1009.9 |
| 20260905030105 | 74 | 74 | 1.0 | 4.0 | 0.00 | 0.00 | 0.00 | 86 | 1009.6 |
| 20260905025724 | 75 | 65 | 1.0 | 3.0 | 0.00 | 0.00 | 0.00 | 86 | 1009.5 |
| 20260905024503 | 74 | 75 | 2.0 | 3.0 | 0.00 | 0.00 | 0.00 | 86 | 1009.4 |
| 20260905023519 | 75 | 86 | 1.0 | 2.0 | 0.00 | 0.00 | 0.00 | 86 | 1009.2 |
| 20260905023103 | 75 | 86 | 2.0 | 3.0 | 0.00 | 0.00 | 0.00 | 87 | 1009.1 |
| 20260905021505 | 75 | 81 | 1.0 | 3.0 | 0.00 | 0.00 | 0.00 | 86 | 1008.9 |
| 20260905021352 | 75 | 78 | 0.0 | 2.0 | 0.00 | 0.00 | 0.00 | 86 | 1008.8 |
| 20260905020331 | 76 | 70 | 0.0 | 2.0 | 0.00 | 0.00 | 0.00 | 85 | 1008.8 |
| 20260905015309 | 76 | 52 | 0.0 | 0.0 | 0.00 | 0.00 | 0.00 | 85 | 1008.6 |
| 20260905014502 | 76 | 65 | 0.0 | 2.0 | 0.00 | 0.00 | 0.00 | 85 | 1008.6 |
| 20260905014332 | 76 | 65 | 0.0 | 1.0 | 0.00 | 0.00 | 0.00 | 85 | 1008.5 |
| 20260905013259 | 77 | 50 | 0.0 | 0.0 | 0.00 | 0.00 | 0.00 | 83 | 1008.4 |
| 20260905013103 | 77 | 50 | 0.0 | 3.0 | 0.00 | 0.00 | 0.00 | 83 | 1008.5 |
| 20260905012300 | 78 | 41 | 0.0 | 3.0 | 0.00 | 0.00 | 0.00 | 82 | 1008.3 |
| 20260905011502 | 78 | 55 | 0.0 | 4.0 | 0.00 | 0.00 | 0.00 | 82 | 1008.4 |
| 20260905011233 | 79 | 39 | 0.0 | 3.0 | 0.00 | 0.00 | 0.00 | 82 | 1008.3 |
| 20260905010248 | 79 | 39 | 0.0 | 1.0 | 0.00 | 0.00 | 0.00 | 82 | 1008.3 |
| 20260905010107 | 79 | 26 | 0.0 | 3.0 | 0.00 | 0.00 | 0.00 | 82 | 1008.4 |
| 20260905004502 | 80 | 2 | 1.0 | 4.0 | 0.00 | 0.00 | 0.00 | 80 | 1008.2 |
| 20260905004132 | 81 | 1 | 0.0 | 3.0 | 0.00 | 0.00 | 0.00 | 79 | 1008.1 |
| 20260905003102 | 81 | 3 | 1.0 | 4.0 | 0.00 | 0.00 | 0.00 | 77 | 1008.1 |
| 20260905003057 | 82 | 2 | 0.0 | 3.0 | 0.00 | 0.00 | 0.00 | 77 | 1008.0 |
| 20260905002031 | 83 | 23 | 0.0 | 2.0 | 0.00 | 0.00 | 0.00 | 76 | 1008.1 |
| 20260905001507 | 83 | 36 | 1.0 | 3.0 | 0.00 | 0.00 | 0.00 | 75 | 1008.2 |
| 20260905001034 | 84 | 347 | 0.0 | 2.0 | 0.00 | 0.00 | 0.00 | 74 | 1008.0 |
| 20260905000041 | 84 | 353 | 0.0 | 2.0 | 0.00 | 0.00 | 0.00 | 74 | 1008.0 |
| 20260904234502 | 84 | 50 | 1.0 | 4.0 | 0.00 | 0.00 | 0.00 | 74 | 1008.1 |
| 20260904233102 | 84 | 41 | 0.0 | 5.0 | 0.00 | 0.00 | 0.00 | 74 | 1007.9 |
| 20260904232735 | 85 | 42 | 1.0 | 4.0 | 0.00 | 0.00 | 0.00 | 73 | 1007.8 |
| 20260904231729 | 85 | 28 | 1.0 | 6.0 | 0.00 | 0.00 | 0.00 | 73 | 1007.8 |
| 20260904231502 | 85 | 41 | 2.0 | 6.0 | 0.00 | 0.00 | 0.00 | 72 | 1007.9 |
| 20260904230719 | 85 | 33 | 2.0 | 9.0 | 0.00 | 0.00 | 0.00 | 72 | 1007.8 |
| 20260904230129 | 85 | 336 | 2.0 | 10.0 | 0.00 | 0.00 | 0.00 | 73 | 1007.7 |
| 20260904225721 | 85 | 13 | 4.0 | 9.0 | 0.00 | 0.00 | 0.00 | 75 | 1007.6 |
| 20260904224739 | 85 | 346 | 4.0 | 7.0 | 0.00 | 0.00 | 0.00 | 75 | 1007.6 |
| 20260904224502 | 84 | 345 | 2.0 | 8.0 | 0.00 | 0.00 | 0.00 | 75 | 1007.7 |
| 20260904223717 | 85 | 8 | 4.0 | 9.0 | 0.00 | 0.00 | 0.00 | 74 | 1007.6 |
| 20260904223107 | 84 | 347 | 5.0 | 10.0 | 0.00 | 0.00 | 0.00 | 75 | 1007.6 |
| 20260904221603 | 85 | 338 | 3.0 | 8.0 | 0.00 | 0.00 | 0.00 | 76 | 1007.5 |
| 20260904221502 | 85 | 352 | 6.0 | 8.0 | 0.00 | 0.00 | 0.00 | 75 | 1007.6 |
| 20260904215423 | 85 | 338 | 4.0 | 8.0 | 0.00 | 0.00 | 0.00 | 77 | 1007.2 |
| 20260904214510 | 86 | 30 | 1.0 | 7.0 | 0.00 | 0.00 | 0.00 | 74 | 1007.1 |
| 20260904213104 | 85 | 64 | 2.0 | 10.0 | 0.00 | 0.00 | 0.00 | 75 | 1007.2 |
| 20260904212134 | 85 | 327 | 2.0 | 9.0 | 0.00 | 0.00 | 0.00 | 76 | 1007.2 |
| 20260904211502 | 85 | 26 | 2.0 | 9.0 | 0.00 | 0.00 | 0.00 | 76 | 1007.3 |
| 20260904210108 | 85 | 38 | 2.0 | 7.0 | 0.00 | 0.00 | 0.00 | 79 | 1007.2 |
| 20260904205932 | 86 | 342 | 2.0 | 6.0 | 0.00 | 0.00 | 0.00 | 78 | 1007.2 |
| 20260904204858 | 85 | 48 | 1.0 | 4.0 | 0.00 | 0.00 | 0.00 | 77 | 1007.3 |
| 20260904204505 | 85 | 39 | 2.0 | 8.0 | 0.00 | 0.00 | 0.00 | 77 | 1007.4 |
| 20260904203824 | 85 | 23 | 3.0 | 7.0 | 0.00 | 0.00 | 0.00 | 79 | 1007.3 |
| 20260904203109 | 84 | 7 | 4.0 | 8.0 | 0.00 | 0.00 | 0.00 | 78 | 1007.3 |
| 20260904201638 | 85 | 339 | 2.0 | 7.0 | 0.00 | 0.00 | 0.00 | 80 | 1007.2 |
| 20260904201503 | 84 | 37 | 4.0 | 8.0 | 0.00 | 0.00 | 0.00 | 79 | 1007.3 |
| 20260904200625 | 84 | 79 | 2.0 | 9.0 | 0.00 | 0.00 | 0.00 | 80 | 1007.3 |
| 20260904200106 | 83 | 42 | 2.0 | 9.0 | 0.00 | 0.00 | 0.00 | 82 | 1007.3 |
| 20260904195624 | 84 | 34 | 3.0 | 9.0 | 0.00 | 0.00 | 0.00 | 79 | 1007.2 |
| 20260904194503 | 84 | 45 | 3.0 | 8.0 | 0.00 | 0.00 | 0.00 | 80 | 1007.3 |
| 20260904193456 | 84 | 46 | 3.0 | 8.0 | 0.00 | 0.00 | 0.00 | 81 | 1007.4 |
| 20260904193103 | 84 | 25 | 5.0 | 9.0 | 0.00 | 0.00 | 0.00 | 80 | 1007.3 |
| 20260904192505 | 84 | 55 | 3.0 | 9.0 | 0.00 | 0.00 | 0.00 | 80 | 1007.3 |
| 20260904191503 | 83 | 46 | 3.0 | 10.0 | 0.00 | 0.00 | 0.00 | 80 | 1007.5 |
| 20260904191430 | 84 | 5 | 4.0 | 9.0 | 0.00 | 0.00 | 0.00 | 80 | 1007.4 |
| 20260904190435 | 84 | 340 | 3.0 | 10.0 | 0.00 | 0.00 | 0.00 | 81 | 1007.4 |
| 20260904190109 | 84 | 349 | 3.0 | 8.0 | 0.00 | 0.00 | 0.00 | 82 | 1007.5 |
| 20260904185358 | 84 | 18 | 5.0 | 10.0 | 0.00 | 0.00 | 0.00 | 80 | 1007.4 |
| 20260904184503 | 84 | 326 | 4.0 | 9.0 | 0.00 | 0.00 | 0.00 | 80 | 1007.3 |
| 20260904184358 | 84 | 3 | 3.0 | 8.0 | 0.00 | 0.00 | 0.00 | 80 | 1007.3 |
| 20260904183418 | 84 | 70 | 2.0 | 8.0 | 0.00 | 0.00 | 0.00 | 83 | 1007.3 |
| 20260904183115 | 83 | 50 | 4.0 | 9.0 | 0.00 | 0.00 | 0.00 | 82 | 1007.3 |
| 20260904182418 | 84 | 54 | 4.0 | 13.0 | 0.00 | 0.00 | 0.00 | 85 | 1007.3 |
| 20260904181503 | 82 | 325 | 10.0 | 15.0 | 0.00 | 0.00 | 0.00 | 85 | 1007.4 |
| 20260904181418 | 82 | 336 | 8.0 | 14.0 | 0.00 | 0.00 | 0.00 | 84 | 1007.3 |
| 20260904180359 | 82 | 60 | 7.0 | 15.0 | 0.00 | 0.00 | 0.00 | 84 | 1007.3 |
| 20260904180110 | 82 | 354 | 8.0 | 16.0 | 0.00 | 0.00 | 0.00 | 85 | 1007.3 |
| 20260904175421 | 82 | 339 | 8.0 | 15.0 | 0.00 | 0.00 | 0.00 | 84 | 1007.3 |
| 20260904174505 | 82 | 7 | 7.0 | 15.0 | 0.00 | 0.30 | 0.00 | 85 | 1007.2 |
| 20260904174439 | 83 | 345 | 7.0 | 14.0 | 0.00 | 0.10 | 0.00 | 85 | 1007.2 |
| 20260904173411 | 83 | 344 | 8.0 | 15.0 | 0.00 | 0.29 | 0.00 | 84 | 1007.0 |
| 20260904173104 | 83 | 337 | 9.0 | 14.0 | 0.00 | 0.30 | 0.00 | 84 | 1007.1 |
| 20260904172351 | 83 | 30 | 10.0 | 15.0 | 0.00 | 0.29 | 0.00 | 85 | 1007.0 |
| 20260904171503 | 84 | 1 | 10.0 | 13.0 | 0.00 | 0.30 | 0.00 | 84 | 1006.9 |
| 20260904171408 | 85 | 336 | 7.0 | 12.0 | 0.00 | 0.29 | 0.00 | 82 | 1006.9 |
| 20260904170418 | 85 | 318 | 5.0 | 10.0 | 0.00 | 0.29 | 0.00 | 80 | 1006.8 |
| 20260904165425 | 85 | 354 | 5.0 | 8.0 | 0.00 | 0.29 | 0.00 | 81 | 1006.8 |
| 20260904164502 | 85 | 326 | 5.0 | 9.0 | 0.00 | 0.43 | 0.00 | 80 | 1006.8 |
| 20260904164407 | 86 | 23 | 2.0 | 7.0 | 0.00 | 0.33 | 0.00 | 81 | 1006.7 |
| 20260904163345 | 84 | 316 | 3.0 | 7.0 | 0.00 | 0.33 | 0.00 | 82 | 1006.7 |
| 20260904163005 | 84 | 345 | 4.0 | 8.0 | 0.00 | 0.43 | 0.00 | 81 | 1006.7 |
| 20260904162344 | 85 | 23 | 1.0 | 6.0 | 0.00 | 0.34 | 0.00 | 82 | 1006.7 |
| 20260904161603 | 83 | 331 | 1.0 | 7.0 | 0.00 | 0.43 | 0.00 | 85 | 1006.6 |
| 20260904161403 | 83 | 51 | 3.0 | 6.0 | 0.00 | 0.41 | 0.00 | 84 | 1006.6 |
| 20260904160420 | 83 | 320 | 2.0 | 5.0 | 0.00 | 0.42 | 0.00 | 86 | 1006.5 |
| 20260904160002 | 82 | 311 | 2.0 | 6.0 | 0.00 | 0.43 | 0.00 | 86 | 1006.5 |
| 20260904155411 | 82 | 321 | 2.0 | 5.0 | 0.00 | 0.42 | 0.00 | 85 | 1006.4 |
| 20260904154602 | 82 | 275 | 2.0 | 4.0 | 0.00 | 0.43 | 0.00 | 85 | 1006.5 |
| 20260904153003 | 81 | 321 | 1.0 | 6.0 | 0.00 | 0.43 | 0.00 | 86 | 1006.4 |
| 20260904152052 | 81 | 356 | 1.0 | 4.0 | 0.00 | 0.42 | 0.00 | 86 | 1006.2 |
| 20260904151603 | 81 | 328 | 1.0 | 5.0 | 0.00 | 0.43 | 0.00 | 87 | 1006.1 |
| 20260904151045 | 81 | 277 | 0.0 | 2.0 | 0.00 | 0.42 | 0.00 | 86 | 1006.1 |
| 20260904150025 | 81 | 310 | 0.0 | 2.0 | 0.00 | 0.42 | 0.00 | 86 | 1006.2 |
| 20260904150007 | 81 | 309 | 1.0 | 3.0 | 0.00 | 0.43 | 0.00 | 86 | 1006.2 |
| 20260904145035 | 80 | 203 | 0.0 | 3.0 | 0.00 | 0.42 | 0.00 | 87 | 1006.2 |
| 20260904144602 | 80 | 259 | 2.0 | 4.0 | 0.00 | 0.43 | 0.00 | 88 | 1006.2 |
| 20260904144004 | 79 | 285 | 1.0 | 4.0 | 0.00 | 0.42 | 0.00 | 88 | 1006.1 |
| 20260904143016 | 79 | 313 | 1.0 | 3.0 | 0.00 | 0.42 | 0.00 | 88 | 1006.1 |
| 20260904143002 | 79 | 313 | 1.0 | 4.0 | 0.00 | 0.43 | 0.00 | 88 | 1006.2 |
| 20260904142004 | 79 | 276 | 0.0 | 2.0 | 0.00 | 0.42 | 0.00 | 88 | 1006.1 |
| 20260904141603 | 79 | 314 | 1.0 | 3.0 | 0.00 | 0.43 | 0.00 | 88 | 1006.3 |
| 20260904141001 | 80 | 307 | 0.0 | 1.0 | 0.00 | 0.42 | 0.00 | 86 | 1006.2 |
| 20260904140008 | 79 | 1 | 0.0 | 0.0 | 0.00 | 0.42 | 0.00 | 88 | 1006.1 |
| 20260904140002 | 78 | 1 | 0.0 | 3.0 | 0.00 | 0.43 | 0.00 | 88 | 1006.2 |
| 20260904135026 | 78 | 0 | 0.0 | 2.0 | 0.00 | 0.42 | 0.00 | 89 | 1006.0 |
| 20260904134604 | 78 | 316 | 1.0 | 2.0 | 0.00 | 0.43 | 0.00 | 88 | 1006.2 |
| 20260904134036 | 77 | 316 | 0.0 | 0.0 | 0.00 | 0.42 | 0.00 | 90 | 1006.1 |
| 20260904133003 | 76 | 300 | 0.0 | 3.0 | 0.00 | 0.43 | 0.00 | 91 | 1006.2 |
| 20260904131939 | 76 | 132 | 0.0 | 0.0 | 0.00 | 0.42 | 0.00 | 91 | 1006.1 |
| 20260904131605 | 75 | 120 | 0.0 | 3.0 | 0.00 | 0.43 | 0.00 | 92 | 1006.1 |
| 20260904130907 | 74 | 207 | 0.0 | 2.0 | 0.00 | 0.42 | 0.00 | 93 | 1005.9 |